Time,TemperatureF,DewpointF,PressureIn,WindDirection,WindDirectionDegrees,WindSpeedMPH,WindSpeedGustMPH,Humidity,HourlyPrecipIn,Conditions,Clouds,dailyrainin,SoftwareType,DateUTC
2013-01-24 00:00:00,8.8,-6.5,30.05,NW,315,2.4,2.4,49,0.00,CLR,,0.00,WeatherDisplay:10.37,2013-01-24 05:00:00,
2013-01-24 00:01:00,8.8,-6.5,30.05,West,270,1.1,2.3,49,0.00,CLR,,0.00,WeatherDisplay:10.37,2013-01-24 05:01:00,
2013-01-24 00:06:00,8.8,-6.9,30.05,West,270,0.2,1.1,48,0.00,CLR,,0.00,WeatherDisplay:10.37,2013-01-24 05:06:00,
2013-01-24 00:11:00,8.6,-6.7,30.05,West,270,1.1,1.1,49,0.00,CLR,,0.00,WeatherDisplay:10.37,2013-01-24 05:11:00,
2013-01-24 00:16:00,8.4,-6.9,30.05,WSW,248,1.8,1.8,49,0.00,CLR,,0.00,WeatherDisplay:10.37,2013-01-24 05:16:00,
2013-01-24 00:21:00,8.2,-7.0,30.05,WNW,292,0.2,1.1,49,0.00,CLR,,0.00,WeatherDisplay:10.37,2013-01-24 05:21:00,
2013-01-24 00:26:00,8.2,-7.0,30.05,WNW,292,1.1,1.1,49,0.00,CLR,,0.00,WeatherDisplay:10.37,2013-01-24 05:26:00,
2013-01-24 00:31:00,8.1,-7.2,30.05,WSW,248,0.5,1.1,49,0.00,CLR,,0.00,WeatherDisplay:10.37,2013-01-24 05:31:00,
2013-01-24 00:36:00,8.1,-7.2,30.05,WNW,292,0.0,0.0,49,0.00,CLR,,0.00,WeatherDisplay:10.37,2013-01-24 05:36:00,
2013-01-24 00:41:00,7.9,-6.9,30.05,NW,315,0.7,0.7,50,0.00,CLR,,0.00,WeatherDisplay:10.37,2013-01-24 05:41:00,
2013-01-24 00:46:00,7.7,-7.1,30.05,WSW,248,0.2,1.1,50,0.00,CLR,,0.00,WeatherDisplay:10.37,2013-01-24 05:46:00,
2013-01-24 00:51:00,7.7,-7.1,30.05,SW,225,0.2,1.1,50,0.00,CLR,,0.00,WeatherDisplay:10.37,2013-01-24 05:51:00,
2013-01-24 00:56:00,7.5,-7.3,30.05,NW,315,0.2,1.1,50,0.00,CLR,,0.00,WeatherDisplay:10.37,2013-01-24 05:56:00,
2013-01-24 01:01:00,7.5,-6.9,30.05,West,270,0.5,1.1,51,0.00,CLR,,0.00,WeatherDisplay:10.37,2013-01-24 06:01:00,
2013-01-24 01:06:00,7.5,-6.9,30.05,WNW,292,0.0,2.3,51,0.00,CLR,,0.00,WeatherDisplay:10.37,2013-01-24 06:06:00,
2013-01-24 01:11:00,7.5,-6.9,30.05,NW,315,1.6,1.6,51,0.00,CLR,,0.00,WeatherDisplay:10.37,2013-01-24 06:11:00,
2013-01-24 01:16:00,7.5,-7.3,30.05,West,270,1.1,2.3,50,0.00,CLR,,0.00,WeatherDisplay:10.37,2013-01-24 06:16:00,
2013-01-24 01:21:00,7.5,-7.3,30.05,NW,315,0.5,1.1,50,0.00,CLR,,0.00,WeatherDisplay:10.37,2013-01-24 06:21:00,
2013-01-24 01:26:00,7.5,-7.3,30.05,WNW,292,0.5,1.1,50,0.00,CLR,,0.00,WeatherDisplay:10.37,2013-01-24 06:26:00,
2013-01-24 01:31:00,7.3,-7.4,30.05,NW,315,0.2,2.3,50,0.00,CLR,,0.00,WeatherDisplay:10.37,2013-01-24 06:31:00,
2013-01-24 01:36:00,7.3,-7.0,30.05,WSW,248,0.2,1.1,51,0.00,CLR,,0.00,WeatherDisplay:10.37,2013-01-24 06:36:00,
2013-01-24 01:41:00,7.0,-7.4,30.05,WNW,292,0.5,1.1,51,0.00,CLR,,0.00,WeatherDisplay:10.37,2013-01-24 06:41:00,
2013-01-24 01:46:00,7.0,-7.4,30.05,WSW,248,0.0,0.0,51,0.00,CLR,,0.00,WeatherDisplay:10.37,2013-01-24 06:46:00,
2013-01-24 01:51:00,7.0,-7.4,30.05,WNW,292,0.5,0.5,51,0.00,CLR,,0.00,WeatherDisplay:10.37,2013-01-24 06:51:00,
2013-01-24 01:56:00,6.8,-7.1,30.05,WNW,292,0.0,1.1,52,0.00,CLR,,0.00,WeatherDisplay:10.37,2013-01-24 06:56:00,
2013-01-24 02:01:00,6.6,-7.3,30.05,WNW,292,0.2,0.2,52,0.00,CLR,,0.00,WeatherDisplay:10.37,2013-01-24 07:01:00,
2013-01-24 02:06:00,6.6,-7.3,30.05,WSW,248,0.7,1.1,52,0.00,CLR,,0.00,WeatherDisplay:10.37,2013-01-24 07:06:00,
2013-01-24 02:11:00,6.6,-7.3,30.05,WNW,292,0.5,1.1,52,0.00,CLR,,0.00,WeatherDisplay:10.37,2013-01-24 07:11:00,
2013-01-24 02:16:00,6.3,-7.6,30.05,WNW,292,0.5,0.5,52,0.00,CLR,,0.00,WeatherDisplay:10.37,2013-01-24 07:16:00,
2013-01-24 02:21:00,6.3,-7.6,30.05,WNW,292,0.7,1.1,52,0.00,CLR,,0.00,WeatherDisplay:10.37,2013-01-24 07:21:00,
2013-01-24 02:26:00,6.4,-7.1,30.05,West,270,0.5,2.3,53,0.00,CLR,,0.00,WeatherDisplay:10.37,2013-01-24 07:26:00,
2013-01-24 02:31:00,6.4,-7.1,30.05,SSW,202,0.5,0.5,53,0.00,CLR,,0.00,WeatherDisplay:10.37,2013-01-24 07:31:00,
2013-01-24 02:36:00,6.4,-7.1,30.05,SSW,202,0.2,0.0,53,0.00,CLR,,0.00,WeatherDisplay:10.37,2013-01-24 07:36:00,
2013-01-24 02:41:00,6.3,-7.2,30.05,WSW,248,1.1,1.1,53,0.00,CLR,,0.00,WeatherDisplay:10.37,2013-01-24 07:41:00,
2013-01-24 02:46:00,6.3,-7.2,30.04,WNW,292,0.2,0.2,53,0.00,CLR,,0.00,WeatherDisplay:10.37,2013-01-24 07:46:00,
2013-01-24 02:51:00,6.1,-7.8,30.04,WNW,292,0.2,0.2,52,0.00,CLR,,0.00,WeatherDisplay:10.37,2013-01-24 07:51:00,
2013-01-24 02:56:00,6.1,-7.4,30.04,NNW,338,1.6,0.0,53,0.00,CLR,,0.00,WeatherDisplay:10.37,2013-01-24 07:56:00,
2013-01-24 03:01:00,6.1,-7.4,30.04,WSW,248,0.5,0.5,53,0.00,CLR,,0.00,WeatherDisplay:10.37,2013-01-24 08:01:00,
2013-01-24 03:06:00,6.1,-7.4,30.04,WNW,292,0.5,2.3,53,0.00,CLR,,0.00,WeatherDisplay:10.37,2013-01-24 08:06:00,
2013-01-24 03:11:00,6.1,-7.4,30.04,West,270,0.2,2.3,53,0.00,CLR,,0.00,WeatherDisplay:10.37,2013-01-24 08:11:00,
2013-01-24 03:16:00,6.1,-7.4,30.04,WNW,292,1.4,1.4,53,0.00,CLR,,0.00,WeatherDisplay:10.37,2013-01-24 08:16:00,
2013-01-24 03:21:00,6.1,-7.4,30.04,WNW,292,0.5,2.3,53,0.00,CLR,,0.00,WeatherDisplay:10.37,2013-01-24 08:21:00,
2013-01-24 03:26:00,6.1,-7.4,30.04,WNW,292,0.5,4.6,53,0.00,CLR,,0.00,WeatherDisplay:10.37,2013-01-24 08:26:00,
2013-01-24 03:31:00,6.1,-7.4,30.04,NW,315,0.0,2.3,53,0.00,CLR,,0.00,WeatherDisplay:10.37,2013-01-24 08:31:00,
2013-01-24 03:36:00,6.3,-6.9,30.03,West,270,3.1,3.1,54,0.00,CLR,,0.00,WeatherDisplay:10.37,2013-01-24 08:36:00,
2013-01-24 03:41:00,6.3,-6.9,30.04,WNW,292,0.2,1.1,54,0.00,CLR,,0.00,WeatherDisplay:10.37,2013-01-24 08:41:00,
2013-01-24 03:46:00,6.3,-6.9,30.03,WNW,292,0.7,2.3,54,0.00,CLR,,0.00,WeatherDisplay:10.37,2013-01-24 08:46:00,
2013-01-24 03:51:00,6.3,-7.2,30.03,NW,315,3.3,3.3,53,0.00,CLR,,0.00,WeatherDisplay:10.37,2013-01-24 08:51:00,
2013-01-24 03:56:00,6.3,-7.2,30.03,South,180,0.5,1.1,53,0.00,CLR,,0.00,WeatherDisplay:10.37,2013-01-24 08:56:00,
2013-01-24 04:01:00,6.1,-7.8,30.03,WNW,292,0.5,0.0,52,0.00,CLR,,0.00,WeatherDisplay:10.37,2013-01-24 09:01:00,
2013-01-24 04:06:00,6.1,-7.4,30.03,West,270,0.2,2.3,53,0.00,CLR,,0.00,WeatherDisplay:10.37,2013-01-24 09:06:00,
2013-01-24 04:11:00,6.1,-7.4,30.03,NW,315,2.4,2.4,53,0.00,CLR,,0.00,WeatherDisplay:10.37,2013-01-24 09:11:00,
2013-01-24 04:16:00,6.1,-7.4,30.03,SSW,202,0.5,2.3,53,0.00,CLR,,0.00,WeatherDisplay:10.37,2013-01-24 09:16:00,
2013-01-24 04:21:00,6.1,-7.4,30.03,SW,225,0.5,6.9,53,0.00,CLR,,0.00,WeatherDisplay:10.37,2013-01-24 09:21:00,
2013-01-24 04:26:00,5.9,-7.6,30.03,West,270,0.7,1.1,53,0.00,CLR,,0.00,WeatherDisplay:10.37,2013-01-24 09:26:00,
2013-01-24 04:31:00,5.9,-7.6,30.03,NW,315,0.5,2.3,53,0.00,CLR,,0.00,WeatherDisplay:10.37,2013-01-24 09:31:00,
2013-01-24 04:36:00,5.9,-7.6,30.03,West,270,1.1,1.1,53,0.00,CLR,,0.00,WeatherDisplay:10.37,2013-01-24 09:36:00,
2013-01-24 04:41:00,5.7,-7.8,30.02,NNW,338,0.2,1.1,53,0.00,CLR,,0.00,WeatherDisplay:10.37,2013-01-24 09:41:00,
2013-01-24 04:46:00,5.5,-7.9,30.03,WSW,248,0.5,2.3,53,0.00,CLR,,0.00,WeatherDisplay:10.37,2013-01-24 09:46:00,
2013-01-24 04:52:00,5.5,-7.9,30.03,WNW,292,0.9,0.9,53,0.00,CLR,,0.00,WeatherDisplay:10.37,2013-01-24 09:52:00,
2013-01-24 04:57:00,5.4,-8.1,30.03,SW,225,0.7,2.3,53,0.00,CLR,,0.00,WeatherDisplay:10.37,2013-01-24 09:57:00,
2013-01-24 05:02:00,5.5,-7.9,30.03,West,270,0.5,0.5,53,0.00,CLR,,0.00,WeatherDisplay:10.37,2013-01-24 10:02:00,
2013-01-24 05:07:00,5.4,-7.7,30.03,NW,315,0.7,1.1,54,0.00,CLR,,0.00,WeatherDisplay:10.37,2013-01-24 10:07:00,
2013-01-24 05:12:00,5.4,-8.1,30.03,West,270,0.5,1.1,53,0.00,CLR,,0.00,WeatherDisplay:10.37,2013-01-24 10:12:00,
2013-01-24 05:17:00,5.4,-8.1,30.03,SW,225,0.7,2.3,53,0.00,CLR,,0.00,WeatherDisplay:10.37,2013-01-24 10:17:00,
2013-01-24 05:22:00,5.4,-7.7,30.03,West,270,0.0,0.0,54,0.00,CLR,,0.00,WeatherDisplay:10.37,2013-01-24 10:22:00,
2013-01-24 05:27:00,5.2,-7.9,30.03,West,270,0.5,0.5,54,0.00,CLR,,0.00,WeatherDisplay:10.37,2013-01-24 10:27:00,
2013-01-24 05:32:00,5.0,-8.0,30.03,WSW,248,0.0,0.0,54,0.00,CLR,,0.00,WeatherDisplay:10.37,2013-01-24 10:32:00,
2013-01-24 05:37:00,5.0,-8.0,30.03,WNW,292,0.2,1.1,54,0.00,CLR,,0.00,WeatherDisplay:10.37,2013-01-24 10:37:00,
2013-01-24 05:42:00,5.0,-7.7,30.03,West,270,0.2,2.3,55,0.00,CLR,,0.00,WeatherDisplay:10.37,2013-01-24 10:42:00,
2013-01-24 05:47:00,5.0,-8.0,30.03,West,270,0.5,0.0,54,0.00,CLR,,0.00,WeatherDisplay:10.37,2013-01-24 10:47:00,
2013-01-24 05:52:00,5.0,-7.7,30.03,West,270,1.1,1.1,55,0.00,CLR,,0.00,WeatherDisplay:10.37,2013-01-24 10:52:00,
2013-01-24 05:57:00,5.0,-8.0,30.03,NNW,338,2.0,2.0,54,0.00,CLR,,0.00,WeatherDisplay:10.37,2013-01-24 10:57:00,
2013-01-24 06:02:00,5.0,-8.0,30.03,WNW,292,0.9,0.9,54,0.00,CLR,,0.00,WeatherDisplay:10.37,2013-01-24 11:02:00,
2013-01-24 06:07:00,5.0,-8.0,30.03,NW,315,0.2,1.1,54,0.00,CLR,,0.00,WeatherDisplay:10.37,2013-01-24 11:07:00,
2013-01-24 06:12:00,5.0,-7.7,30.04,NNW,338,1.8,2.3,55,0.00,CLR,,0.00,WeatherDisplay:10.37,2013-01-24 11:12:00,
2013-01-24 06:17:00,4.8,-7.8,30.04,NNW,338,2.0,2.0,55,0.00,CLR,,0.00,WeatherDisplay:10.37,2013-01-24 11:17:00,
2013-01-24 06:22:00,5.0,-8.0,30.04,WSW,248,0.0,1.1,54,0.00,CLR,,0.00,WeatherDisplay:10.37,2013-01-24 11:22:00,
2013-01-24 06:27:00,4.8,-8.2,30.04,North,0,0.2,0.2,54,0.00,CLR,,0.00,WeatherDisplay:10.37,2013-01-24 11:27:00,
2013-01-24 06:32:00,4.6,-8.4,30.04,West,270,0.2,1.1,54,0.00,CLR,,0.00,WeatherDisplay:10.37,2013-01-24 11:32:00,
2013-01-24 06:37:00,4.6,-8.0,30.04,NW,315,0.5,5.8,55,0.00,CLR,,0.00,WeatherDisplay:10.37,2013-01-24 11:37:00,
2013-01-24 06:42:00,4.6,-8.0,30.03,WNW,292,0.5,0.5,55,0.00,CLR,,0.00,WeatherDisplay:10.37,2013-01-24 11:42:00,
2013-01-24 06:47:00,4.6,-8.0,30.04,NNW,338,0.5,1.1,55,0.00,CLR,,0.00,WeatherDisplay:10.37,2013-01-24 11:47:00,
2013-01-24 06:52:00,4.6,-8.0,30.04,NW,315,0.2,1.1,55,0.00,CLR,,0.00,WeatherDisplay:10.37,2013-01-24 11:52:00,
2013-01-24 06:57:00,4.6,-7.6,30.04,WNW,292,2.4,2.4,56,0.00,CLR,,0.00,WeatherDisplay:10.37,2013-01-24 11:57:00,
2013-01-24 07:02:00,4.6,-7.6,30.04,SW,225,0.5,4.6,56,0.00,CLR,,0.00,WeatherDisplay:10.37,2013-01-24 12:02:00,
2013-01-24 07:07:00,4.6,-7.6,30.04,West,270,0.0,1.1,56,0.00,CLR,,0.00,WeatherDisplay:10.37,2013-01-24 12:07:00,
2013-01-24 07:12:00,4.5,-7.8,30.04,North,0,2.6,2.6,56,0.00,CLR,,0.00,WeatherDisplay:10.37,2013-01-24 12:12:00,
2013-01-24 07:17:00,4.5,-7.8,30.04,West,270,0.7,1.1,56,0.00,CLR,,0.00,WeatherDisplay:10.37,2013-01-24 12:17:00,
2013-01-24 07:22:00,4.5,-7.8,30.04,NNW,338,3.8,3.8,56,0.00,CLR,,0.00,WeatherDisplay:10.37,2013-01-24 12:22:00,
2013-01-24 07:27:00,4.6,-7.6,30.04,NW,315,0.5,2.3,56,0.00,CLR,,0.00,WeatherDisplay:10.37,2013-01-24 12:27:00,
2013-01-24 07:32:00,4.6,-7.6,30.04,NW,315,2.2,4.6,56,0.00,CLR,,0.00,WeatherDisplay:10.37,2013-01-24 12:32:00,
2013-01-24 07:37:00,4.8,-7.5,30.04,NW,315,1.1,2.3,56,0.00,CLR,,0.00,WeatherDisplay:10.37,2013-01-24 12:37:00,
2013-01-24 07:42:00,5.0,-7.3,30.05,WNW,292,1.1,2.3,56,0.00,CLR,,0.00,WeatherDisplay:10.37,2013-01-24 12:42:00,
2013-01-24 07:47:00,5.2,-7.5,30.05,WSW,248,1.8,4.6,55,0.00,CLR,,0.00,WeatherDisplay:10.37,2013-01-24 12:47:00,
2013-01-24 07:52:00,5.4,-7.7,30.04,WNW,292,1.8,3.5,54,0.00,CLR,,0.00,WeatherDisplay:10.37,2013-01-24 12:52:00,
2013-01-24 07:57:00,5.5,-7.5,30.04,NW,315,1.4,1.4,54,0.00,CLR,,0.00,WeatherDisplay:10.37,2013-01-24 12:57:00,
2013-01-24 08:02:00,5.7,-7.4,30.05,West,270,2.0,3.5,54,0.00,CLR,,0.00,WeatherDisplay:10.37,2013-01-24 13:02:00,
2013-01-24 08:07:00,6.1,-7.4,30.05,NW,315,3.3,3.3,53,0.00,CLR,,0.00,WeatherDisplay:10.37,2013-01-24 13:07:00,
2013-01-24 08:12:00,6.1,-7.4,30.05,West,270,0.0,2.3,53,0.00,CLR,,0.00,WeatherDisplay:10.37,2013-01-24 13:12:00,
2013-01-24 08:17:00,6.4,-7.1,30.05,NW,315,3.6,6.9,53,0.00,CLR,,0.00,WeatherDisplay:10.37,2013-01-24 13:17:00,
2013-01-24 08:22:00,6.6,-6.9,30.05,West,270,2.4,4.6,53,0.00,CLR,,0.00,WeatherDisplay:10.37,2013-01-24 13:22:00,
2013-01-24 08:27:00,6.8,-7.1,30.05,WSW,248,1.4,2.3,52,0.00,CLR,,0.00,WeatherDisplay:10.37,2013-01-24 13:27:00,
2013-01-24 08:32:00,7.2,-6.8,30.04,NW,315,1.1,2.3,52,0.00,CLR,,0.00,WeatherDisplay:10.37,2013-01-24 13:32:00,
2013-01-24 08:37:00,7.5,-6.9,30.04,NW,315,5.2,5.2,51,0.00,CLR,,0.00,WeatherDisplay:10.37,2013-01-24 13:37:00,
2013-01-24 08:42:00,7.5,-7.3,30.04,West,270,0.7,3.5,50,0.00,CLR,,0.00,WeatherDisplay:10.37,2013-01-24 13:42:00,
2013-01-24 08:47:00,7.9,-6.9,30.04,NW,315,1.8,3.5,50,0.00,CLR,,0.00,WeatherDisplay:10.37,2013-01-24 13:47:00,
2013-01-24 08:52:00,8.2,-7.0,30.04,NNW,338,2.2,5.8,49,0.00,CLR,,0.00,WeatherDisplay:10.37,2013-01-24 13:52:00,
2013-01-24 08:57:00,8.6,-6.7,30.04,North,0,1.1,4.6,49,0.00,CLR,,0.00,WeatherDisplay:10.37,2013-01-24 13:57:00,
2013-01-24 09:02:00,9.0,-6.8,30.04,NW,315,1.8,4.6,48,0.00,CLR,,0.00,WeatherDisplay:10.37,2013-01-24 14:02:00,
2013-01-24 09:07:00,9.0,-6.8,30.04,WSW,248,0.9,2.3,48,0.00,CLR,,0.00,WeatherDisplay:10.37,2013-01-24 14:07:00,
2013-01-24 09:19:00,9.7,-6.5,30.04,NW,315,9.0,9.0,47,0.00,CLR,,0.00,WeatherDisplay:10.37,2013-01-24 14:19:00,
2013-01-24 09:24:00,9.7,-7.0,30.04,NW,315,7.6,8.1,46,0.00,CLR,,0.00,WeatherDisplay:10.37,2013-01-24 14:24:00,
2013-01-24 09:29:00,10.0,-6.7,30.04,NNW,338,13.2,13.2,46,0.00,CLR,,0.00,WeatherDisplay:10.37,2013-01-24 14:29:00,
2013-01-24 09:34:00,10.4,-6.3,30.03,NNW,338,6.0,6.0,46,0.00,CLR,,0.00,WeatherDisplay:10.37,2013-01-24 14:34:00,
2013-01-24 09:39:00,10.4,-6.3,30.03,WNW,292,4.0,4.0,46,0.00,CLR,,0.00,WeatherDisplay:10.37,2013-01-24 14:39:00,
2013-01-24 09:44:00,10.8,-6.0,30.03,NW,315,9.2,9.2,46,0.00,CLR,,0.00,WeatherDisplay:10.37,2013-01-24 14:44:00,
2013-01-24 09:49:00,10.9,-5.8,30.03,NNW,338,0.7,4.6,46,0.00,CLR,,0.00,WeatherDisplay:10.37,2013-01-24 14:49:00,
2013-01-24 09:54:00,11.3,-5.5,30.03,WNW,292,4.3,4.6,46,0.00,CLR,,0.00,WeatherDisplay:10.37,2013-01-24 14:54:00,
2013-01-24 09:59:00,11.5,-5.8,30.03,West,270,1.1,4.6,45,0.00,CLR,,0.00,WeatherDisplay:10.37,2013-01-24 14:59:00,
2013-01-24 10:04:00,11.5,-6.3,30.03,SW,225,3.3,4.6,44,0.00,CLR,,0.00,WeatherDisplay:10.37,2013-01-24 15:04:00,
2013-01-24 10:09:00,11.7,-6.1,30.03,NW,315,2.2,6.9,44,0.00,CLR,,0.00,WeatherDisplay:10.37,2013-01-24 15:09:00,
2013-01-24 10:14:00,11.8,-5.9,30.03,North,0,3.3,5.8,44,0.00,CLR,,0.00,WeatherDisplay:10.37,2013-01-24 15:14:00,
2013-01-24 10:19:00,12.4,-5.4,30.03,NW,315,2.0,2.3,44,0.00,CLR,,0.00,WeatherDisplay:10.37,2013-01-24 15:19:00,
2013-01-24 10:24:00,12.7,-5.1,30.03,NNE,22,1.8,4.6,44,0.00,CLR,,0.00,WeatherDisplay:10.37,2013-01-24 15:24:00,
2013-01-24 10:29:00,13.3,-5.1,30.03,SSW,202,1.8,5.8,43,0.00,CLR,,0.00,WeatherDisplay:10.37,2013-01-24 15:29:00,
2013-01-24 10:34:00,13.6,-4.8,30.03,NNE,22,5.6,5.6,43,0.00,CLR,,0.00,WeatherDisplay:10.37,2013-01-24 15:34:00,
2013-01-24 10:39:00,14.0,-4.9,30.03,NW,315,2.9,5.8,42,0.00,CLR,,0.00,WeatherDisplay:10.37,2013-01-24 15:39:00,
2013-01-24 10:44:00,14.0,-4.9,30.02,NW,315,3.3,4.6,42,0.00,CLR,,0.00,WeatherDisplay:10.37,2013-01-24 15:44:00,
2013-01-24 10:49:00,14.2,-4.3,30.02,NNW,338,5.9,5.9,43,0.00,CLR,,0.00,WeatherDisplay:10.37,2013-01-24 15:49:00,
2013-01-24 10:54:00,14.7,-4.8,30.02,North,0,3.3,9.2,41,0.00,CLR,,0.00,WeatherDisplay:10.37,2013-01-24 15:54:00,
2013-01-24 10:59:00,14.9,-4.1,30.02,WNW,292,1.6,5.8,42,0.00,CLR,,0.00,WeatherDisplay:10.37,2013-01-24 15:59:00,
2013-01-24 11:04:00,15.1,-4.4,30.01,WNW,292,2.9,2.9,41,0.00,CLR,,0.00,WeatherDisplay:10.37,2013-01-24 16:04:00,
2013-01-24 11:09:00,15.3,-4.3,30.01,North,0,1.8,2.3,41,0.00,CLR,,0.00,WeatherDisplay:10.37,2013-01-24 16:09:00,
2013-01-24 11:14:00,15.4,-4.1,30.01,WNW,292,1.8,5.8,41,0.00,CLR,,0.00,WeatherDisplay:10.37,2013-01-24 16:14:00,
2013-01-24 11:19:00,15.8,-3.8,30.01,West,270,4.0,4.6,41,0.00,CLR,,0.00,WeatherDisplay:10.37,2013-01-24 16:19:00,
2013-01-24 11:24:00,16.0,-3.6,30.01,West,270,1.1,4.6,41,0.00,CLR,,0.00,WeatherDisplay:10.37,2013-01-24 16:24:00,
2013-01-24 11:29:00,16.3,-3.8,30.00,NNW,338,6.0,8.1,40,0.00,CLR,,0.00,WeatherDisplay:10.37,2013-01-24 16:29:00,
2013-01-24 11:34:00,16.7,-3.5,30.00,WNW,292,6.9,6.9,40,0.00,CLR,,0.00,WeatherDisplay:10.37,2013-01-24 16:34:00,
2013-01-24 11:39:00,16.7,-4.0,30.00,NE,45,4.3,8.1,39,0.00,CLR,,0.00,WeatherDisplay:10.37,2013-01-24 16:39:00,
2013-01-24 11:44:00,17.1,-3.7,30.00,NW,315,3.6,8.1,39,0.00,CLR,,0.00,WeatherDisplay:10.37,2013-01-24 16:44:00,
2013-01-24 11:49:00,17.1,-3.7,30.00,North,0,4.7,4.7,39,0.00,CLR,,0.00,WeatherDisplay:10.37,2013-01-24 16:49:00,
2013-01-24 11:54:00,17.6,-3.2,30.00,NW,315,7.6,7.6,39,0.00,CLR,,0.00,WeatherDisplay:10.37,2013-01-24 16:54:00,
2013-01-24 11:59:00,17.4,-3.9,29.99,NE,45,3.8,3.8,38,0.00,CLR,,0.00,WeatherDisplay:10.37,2013-01-24 16:59:00,
2013-01-24 12:04:00,17.2,-4.1,29.99,NW,315,4.5,6.0,38,0.00,CLR,,0.00,WeatherDisplay:10.37,2013-01-24 17:04:00,
2013-01-24 12:09:00,17.6,-3.7,29.99,NW,315,4.0,4.0,38,0.00,CLR,,0.00,WeatherDisplay:10.37,2013-01-24 17:09:00,
2013-01-24 12:14:00,18.3,-2.5,29.99,SW,225,1.4,3.5,39,0.00,CLR,,0.00,WeatherDisplay:10.37,2013-01-24 17:14:00,
2013-01-24 12:19:00,18.5,-2.9,29.99,NW,315,4.0,4.6,38,0.01,RA,,0.01,WeatherDisplay:10.37,2013-01-24 17:19:00,
2013-01-24 12:24:00,18.7,-3.3,29.99,NW,315,4.0,4.6,37,0.01,RA,,0.01,WeatherDisplay:10.37,2013-01-24 17:24:00,
2013-01-24 12:29:00,18.5,-2.9,29.98,NW,315,4.0,4.6,38,0.01,CLR,,0.01,WeatherDisplay:10.37,2013-01-24 17:29:00,
2013-01-24 12:34:00,18.9,-2.6,29.98,West,270,2.9,3.5,38,0.01,CLR,,0.01,WeatherDisplay:10.37,2013-01-24 17:34:00,
2013-01-24 12:39:00,18.9,-3.2,29.98,WSW,248,1.6,11.5,37,0.01,CLR,,0.01,WeatherDisplay:10.37,2013-01-24 17:39:00,
2013-01-24 12:44:00,18.7,-2.8,29.98,WNW,292,4.9,8.1,38,0.01,CLR,,0.01,WeatherDisplay:10.37,2013-01-24 17:44:00,
2013-01-24 12:49:00,19.0,-2.4,29.98,NNW,338,1.4,4.6,38,0.01,CLR,,0.01,WeatherDisplay:10.37,2013-01-24 17:49:00,
2013-01-24 12:54:00,19.2,-2.3,29.98,West,270,1.1,6.9,38,0.01,CLR,,0.01,WeatherDisplay:10.37,2013-01-24 17:54:00,
2013-01-24 12:59:00,19.2,-2.8,29.98,WNW,292,6.2,11.5,37,0.01,CLR,,0.01,WeatherDisplay:10.37,2013-01-24 17:59:00,
2013-01-24 13:04:00,19.0,-3.6,29.98,WNW,292,7.4,8.1,36,0.01,CLR,,0.01,WeatherDisplay:10.37,2013-01-24 18:04:00,
2013-01-24 13:09:00,19.0,-3.0,29.98,NW,315,4.0,4.0,37,0.01,CLR,,0.01,WeatherDisplay:10.37,2013-01-24 18:09:00,
2013-01-24 13:14:00,19.0,-3.0,29.97,NW,315,4.3,4.6,37,0.01,CLR,,0.01,WeatherDisplay:10.37,2013-01-24 18:14:00,
2013-01-24 13:20:00,19.2,-3.4,29.97,West,270,9.4,9.4,36,0.00,CLR,,0.01,WeatherDisplay:10.37,2013-01-24 18:20:00,
2013-01-24 13:25:00,19.0,-4.2,29.98,NNW,338,4.0,5.8,35,0.00,CLR,,0.01,WeatherDisplay:10.37,2013-01-24 18:25:00,
2013-01-24 13:30:00,19.0,-3.0,29.98,WNW,292,2.6,11.5,37,0.00,CLR,,0.01,WeatherDisplay:10.37,2013-01-24 18:30:00,
2013-01-24 13:34:00,19.4,-2.7,29.97,WNW,292,5.6,5.6,37,0.00,CLR,,0.01,WeatherDisplay:10.37,2013-01-24 18:34:00,
2013-01-24 13:39:00,19.4,-3.3,29.98,WNW,292,6.2,6.2,36,0.00,CLR,,0.01,WeatherDisplay:10.37,2013-01-24 18:39:00,
2013-01-24 13:44:00,19.4,-2.7,29.98,NNW,338,6.2,6.2,37,0.00,CLR,,0.01,WeatherDisplay:10.37,2013-01-24 18:44:00,
2013-01-24 13:50:00,19.4,-3.3,29.98,West,270,4.7,4.7,36,0.00,CLR,,0.01,WeatherDisplay:10.37,2013-01-24 18:50:00,
2013-01-24 13:54:00,19.4,-3.8,29.98,NW,315,6.0,6.0,35,0.00,CLR,,0.01,WeatherDisplay:10.37,2013-01-24 18:54:00,
2013-01-24 13:59:00,19.2,-4.0,29.98,West,270,4.3,11.5,35,0.00,CLR,,0.01,WeatherDisplay:10.37,2013-01-24 18:59:00,
2013-01-24 14:04:00,19.8,-2.9,29.98,West,270,5.6,5.6,36,0.00,CLR,,0.01,WeatherDisplay:10.37,2013-01-24 19:04:00,
2013-01-24 14:09:00,19.8,-2.9,29.98,SW,225,0.9,9.2,36,0.00,CLR,,0.01,WeatherDisplay:10.37,2013-01-24 19:09:00,
2013-01-24 14:14:00,19.8,-3.5,29.98,NW,315,10.7,10.7,35,0.00,CLR,,0.01,WeatherDisplay:10.37,2013-01-24 19:14:00,
2013-01-24 14:19:00,19.6,-3.7,29.99,West,270,1.8,4.6,35,0.00,CLR,,0.01,WeatherDisplay:10.37,2013-01-24 19:19:00,
2013-01-24 14:24:00,19.4,-2.7,29.99,NW,315,4.0,10.4,37,0.00,CLR,,0.01,WeatherDisplay:10.37,2013-01-24 19:24:00,
2013-01-24 14:29:00,19.6,-3.1,29.98,WSW,248,4.5,4.5,36,0.00,CLR,,0.01,WeatherDisplay:10.37,2013-01-24 19:29:00,
2013-01-24 14:34:00,19.4,-3.8,29.98,WNW,292,4.5,13.8,35,0.00,CLR,,0.01,WeatherDisplay:10.37,2013-01-24 19:34:00,
2013-01-24 14:39:00,19.4,-3.3,29.98,WNW,292,6.4,6.4,36,0.00,CLR,,0.01,WeatherDisplay:10.37,2013-01-24 19:39:00,
2013-01-24 14:44:00,19.4,-3.3,29.99,NW,315,2.4,8.1,36,0.00,CLR,,0.01,WeatherDisplay:10.37,2013-01-24 19:44:00,
2013-01-24 14:49:00,19.6,-3.1,29.99,NNW,338,2.4,2.4,36,0.00,CLR,,0.01,WeatherDisplay:10.37,2013-01-24 19:49:00,
2013-01-24 14:54:00,19.4,-3.3,29.99,West,270,3.1,8.1,36,0.00,CLR,,0.01,WeatherDisplay:10.37,2013-01-24 19:54:00,
2013-01-24 14:59:00,19.4,-3.8,29.99,NNW,338,4.5,4.6,35,0.00,CLR,,0.01,WeatherDisplay:10.37,2013-01-24 19:59:00,
2013-01-24 15:04:00,19.2,-4.0,29.99,NW,315,1.1,3.5,35,0.00,CLR,,0.01,WeatherDisplay:10.37,2013-01-24 20:04:00,
2013-01-24 15:09:00,19.0,-4.8,29.99,SW,225,4.0,4.6,34,0.00,CLR,,0.01,WeatherDisplay:10.37,2013-01-24 20:09:00,
2013-01-24 15:14:00,19.0,-4.2,29.99,WNW,292,1.8,3.5,35,0.00,CLR,,0.01,WeatherDisplay:10.37,2013-01-24 20:14:00,
2013-01-24 15:19:00,19.0,-4.2,29.99,WNW,292,2.4,4.6,35,0.00,CLR,,0.01,WeatherDisplay:10.37,2013-01-24 20:19:00,
2013-01-24 15:24:00,19.0,-4.2,29.99,West,270,4.3,5.8,35,0.00,CLR,,0.01,WeatherDisplay:10.37,2013-01-24 20:24:00,
2013-01-24 15:29:00,19.0,-4.2,29.99,NW,315,7.4,11.5,35,0.00,CLR,,0.01,WeatherDisplay:10.37,2013-01-24 20:29:00,
2013-01-24 15:34:00,18.9,-4.9,29.99,NW,315,9.2,9.2,34,0.00,CLR,,0.01,WeatherDisplay:10.37,2013-01-24 20:34:00,
2013-01-24 15:39:00,18.9,-4.3,29.99,WNW,292,3.6,3.6,35,0.00,CLR,,0.01,WeatherDisplay:10.37,2013-01-24 20:39:00,
2013-01-24 15:44:00,18.9,-4.9,30.00,NW,315,1.6,4.6,34,0.00,CLR,,0.01,WeatherDisplay:10.37,2013-01-24 20:44:00,
2013-01-24 15:49:00,18.7,-5.1,30.00,NW,315,1.1,8.1,34,0.00,CLR,,0.01,WeatherDisplay:10.37,2013-01-24 20:49:00,
2013-01-24 15:54:00,18.7,-4.5,30.00,North,0,3.3,3.3,35,0.00,CLR,,0.01,WeatherDisplay:10.37,2013-01-24 20:54:00,
2013-01-24 15:59:00,18.9,-4.3,30.00,WNW,292,2.2,3.5,35,0.00,CLR,,0.01,WeatherDisplay:10.37,2013-01-24 20:59:00,
2013-01-24 16:04:00,18.7,-3.9,30.00,West,270,0.9,1.1,36,0.00,CLR,,0.01,WeatherDisplay:10.37,2013-01-24 21:04:00,
2013-01-24 16:09:00,18.7,-4.5,30.00,West,270,2.0,3.5,35,0.00,CLR,,0.01,WeatherDisplay:10.37,2013-01-24 21:09:00,
2013-01-24 16:14:00,18.7,-4.5,30.01,WNW,292,1.1,4.6,35,0.00,CLR,,0.01,WeatherDisplay:10.37,2013-01-24 21:14:00,
2013-01-24 16:19:00,18.7,-4.5,30.01,NNW,338,3.3,4.6,35,0.00,CLR,,0.01,WeatherDisplay:10.37,2013-01-24 21:19:00,
2013-01-24 16:24:00,18.5,-4.7,30.01,WNW,292,1.8,2.3,35,0.00,CLR,,0.01,WeatherDisplay:10.37,2013-01-24 21:24:00,
2013-01-24 16:29:00,18.5,-4.1,30.02,WSW,248,1.8,2.3,36,0.00,CLR,,0.01,WeatherDisplay:10.37,2013-01-24 21:29:00,
2013-01-24 16:34:00,18.3,-4.8,30.02,WSW,248,1.1,2.3,35,0.00,CLR,,0.01,WeatherDisplay:10.37,2013-01-24 21:34:00,
2013-01-24 16:39:00,18.3,-4.2,30.02,West,270,0.7,1.1,36,0.00,CLR,,0.01,WeatherDisplay:10.37,2013-01-24 21:39:00,
2013-01-24 16:44:00,18.1,-4.4,30.02,West,270,1.8,4.6,36,0.00,CLR,,0.01,WeatherDisplay:10.37,2013-01-24 21:44:00,
2013-01-24 16:49:00,18.3,-4.2,30.02,North,0,1.8,4.6,36,0.00,CLR,,0.01,WeatherDisplay:10.37,2013-01-24 21:49:00,
2013-01-24 16:54:00,18.1,-4.4,30.02,SW,225,0.7,6.9,36,0.00,CLR,,0.01,WeatherDisplay:10.37,2013-01-24 21:54:00,
2013-01-24 16:59:00,18.3,-4.2,30.02,NNW,338,3.1,4.6,36,0.00,CLR,,0.01,WeatherDisplay:10.37,2013-01-24 21:59:00,
2013-01-24 17:04:00,18.1,-4.4,30.02,WSW,248,1.4,5.8,36,0.00,CLR,,0.01,WeatherDisplay:10.37,2013-01-24 22:04:00,
2013-01-24 17:09:00,18.1,-5.0,30.03,West,270,4.5,9.2,35,0.00,CLR,,0.01,WeatherDisplay:10.37,2013-01-24 22:09:00,
2013-01-24 17:15:00,18.1,-5.0,30.03,SW,225,3.6,3.6,35,0.00,CLR,,0.01,WeatherDisplay:10.37,2013-01-24 22:15:00,
2013-01-24 17:20:00,18.0,-4.0,30.03,NW,315,2.4,2.4,37,0.00,CLR,,0.01,WeatherDisplay:10.37,2013-01-24 22:20:00,
2013-01-24 17:25:00,18.0,-5.1,30.04,NNW,338,2.4,5.8,35,0.00,CLR,,0.01,WeatherDisplay:10.37,2013-01-24 22:25:00,
2013-01-24 17:30:00,17.8,-4.7,30.04,West,270,0.2,1.1,36,0.00,CLR,,0.01,WeatherDisplay:10.37,2013-01-24 22:30:00,
2013-01-24 17:35:00,17.6,-4.3,30.04,West,270,1.8,2.3,37,0.00,CLR,,0.01,WeatherDisplay:10.37,2013-01-24 22:35:00,
2013-01-24 17:40:00,17.4,-3.9,30.05,NW,315,0.5,0.5,38,0.00,CLR,,0.01,WeatherDisplay:10.37,2013-01-24 22:40:00,
2013-01-24 17:45:00,17.4,-3.9,30.05,West,270,0.9,1.1,38,0.00,CLR,,0.01,WeatherDisplay:10.37,2013-01-24 22:45:00,
2013-01-24 17:50:00,17.6,-3.2,30.05,North,0,0.0,0.0,39,0.00,CLR,,0.01,WeatherDisplay:10.37,2013-01-24 22:50:00,
2013-01-24 17:55:00,17.6,-3.2,30.06,South,180,2.9,2.9,39,0.00,CLR,,0.01,WeatherDisplay:10.37,2013-01-24 22:55:00,
2013-01-24 18:00:00,17.6,-2.7,30.05,WNW,292,1.1,1.1,40,0.00,CLR,,0.01,WeatherDisplay:10.37,2013-01-24 23:00:00,
2013-01-24 18:05:00,17.4,-2.8,30.05,NW,315,0.7,1.1,40,0.00,CLR,,0.01,WeatherDisplay:10.37,2013-01-24 23:05:00,
2013-01-24 18:10:00,17.2,-3.0,30.06,WNW,292,2.4,2.4,40,0.00,CLR,,0.01,WeatherDisplay:10.37,2013-01-24 23:10:00,
2013-01-24 18:15:00,17.2,-3.0,30.06,WNW,292,0.5,1.1,40,0.00,CLR,,0.01,WeatherDisplay:10.37,2013-01-24 23:15:00,
2013-01-24 18:20:00,17.2,-2.5,30.06,West,270,1.1,3.5,41,0.00,CLR,,0.01,WeatherDisplay:10.37,2013-01-24 23:20:00,
2013-01-24 18:25:00,17.1,-3.2,30.06,SSE,158,1.8,3.5,40,0.00,CLR,,0.01,WeatherDisplay:10.37,2013-01-24 23:25:00,
2013-01-24 18:30:00,17.1,-3.2,30.06,NW,315,2.4,4.6,40,0.00,CLR,,0.01,WeatherDisplay:10.37,2013-01-24 23:30:00,
2013-01-24 18:35:00,17.2,-3.0,30.06,NW,315,3.1,3.5,40,0.00,CLR,,0.01,WeatherDisplay:10.37,2013-01-24 23:35:00,
2013-01-24 18:40:00,17.4,-2.8,30.07,West,270,3.1,3.5,40,0.00,CLR,,0.01,WeatherDisplay:10.37,2013-01-24 23:40:00,
2013-01-24 18:45:00,17.4,-2.8,30.07,NNW,338,4.0,4.0,40,0.00,CLR,,0.01,WeatherDisplay:10.37,2013-01-24 23:45:00,
2013-01-24 18:50:00,17.4,-2.8,30.07,SW,225,1.1,1.1,40,0.00,CLR,,0.01,WeatherDisplay:10.37,2013-01-24 23:50:00,
2013-01-24 18:55:00,17.1,-3.2,30.07,West,270,3.1,3.5,40,0.00,CLR,,0.01,WeatherDisplay:10.37,2013-01-24 23:55:00,
2013-01-24 19:00:00,16.9,-3.3,30.07,WNW,292,1.1,2.3,40,0.00,CLR,,0.01,WeatherDisplay:10.37,2013-01-25 00:00:00,
2013-01-24 19:05:00,16.9,-3.3,30.08,WSW,248,0.9,1.1,40,0.00,CLR,,0.01,WeatherDisplay:10.37,2013-01-25 00:05:00,
2013-01-24 19:10:00,16.7,-3.5,30.07,WNW,292,1.8,2.3,40,0.00,CLR,,0.01,WeatherDisplay:10.37,2013-01-25 00:10:00,
2013-01-24 19:15:00,16.7,-3.0,30.08,SW,225,1.8,4.6,41,0.00,CLR,,0.01,WeatherDisplay:10.37,2013-01-25 00:15:00,
2013-01-24 19:20:00,16.5,-3.1,30.08,NW,315,0.5,2.3,41,0.00,CLR,,0.01,WeatherDisplay:10.37,2013-01-25 00:20:00,
2013-01-24 19:25:00,16.5,-3.1,30.07,NNW,338,1.8,2.3,41,0.00,CLR,,0.01,WeatherDisplay:10.37,2013-01-25 00:25:00,
2013-01-24 19:30:00,16.5,-3.6,30.07,West,270,1.8,2.3,40,0.00,CLR,,0.01,WeatherDisplay:10.37,2013-01-25 00:30:00,
2013-01-24 19:35:00,16.3,-3.3,30.07,NW,315,0.2,1.1,41,0.00,CLR,,0.01,WeatherDisplay:10.37,2013-01-25 00:35:00,
2013-01-24 19:40:00,16.5,-3.6,30.07,NNW,338,1.8,2.3,40,0.00,CLR,,0.01,WeatherDisplay:10.37,2013-01-25 00:40:00,
2013-01-24 19:45:00,16.5,-3.1,30.08,WNW,292,0.2,2.3,41,0.00,CLR,,0.01,WeatherDisplay:10.37,2013-01-25 00:45:00,
2013-01-24 19:50:00,16.3,-2.8,30.08,WNW,292,0.5,1.1,42,0.00,CLR,,0.01,WeatherDisplay:10.37,2013-01-25 00:50:00,
2013-01-24 19:55:00,16.2,-2.9,30.08,WSW,248,1.1,2.3,42,0.00,CLR,,0.01,WeatherDisplay:10.37,2013-01-25 00:55:00,
2013-01-24 20:00:00,16.2,-2.9,30.08,West,270,0.5,3.5,42,0.00,CLR,,0.01,WeatherDisplay:10.37,2013-01-25 01:00:00,
2013-01-24 20:05:00,16.3,-2.8,30.08,WNW,292,1.1,4.6,42,0.00,CLR,,0.01,WeatherDisplay:10.37,2013-01-25 01:05:00,
2013-01-24 20:10:00,16.2,-2.9,30.08,NW,315,1.1,2.3,42,0.00,CLR,,0.01,WeatherDisplay:10.37,2013-01-25 01:10:00,
2013-01-24 20:15:00,16.2,-3.5,30.08,NW,315,0.7,5.8,41,0.00,CLR,,0.01,WeatherDisplay:10.37,2013-01-25 01:15:00,
2013-01-24 20:20:00,16.3,-2.8,30.08,NNW,338,1.8,2.3,42,0.00,CLR,,0.01,WeatherDisplay:10.37,2013-01-25 01:20:00,
2013-01-24 20:25:00,16.2,-2.9,30.08,SSW,202,0.7,3.5,42,0.00,CLR,,0.01,WeatherDisplay:10.37,2013-01-25 01:25:00,
2013-01-24 20:30:00,16.2,-2.9,30.08,West,270,2.6,2.6,42,0.00,CLR,,0.01,WeatherDisplay:10.37,2013-01-25 01:30:00,
2013-01-24 20:35:00,16.0,-3.1,30.08,West,270,1.1,2.3,42,0.00,CLR,,0.01,WeatherDisplay:10.37,2013-01-25 01:35:00,
2013-01-24 20:40:00,16.0,-3.1,30.08,WSW,248,2.0,3.5,42,0.00,CLR,,0.01,WeatherDisplay:10.37,2013-01-25 01:40:00,
2013-01-24 20:45:00,16.0,-3.1,30.09,SW,225,0.7,3.5,42,0.00,CLR,,0.01,WeatherDisplay:10.37,2013-01-25 01:45:00,
2013-01-24 20:50:00,15.8,-2.8,30.09,ENE,68,0.2,2.3,43,0.00,CLR,,0.01,WeatherDisplay:10.37,2013-01-25 01:50:00,
2013-01-24 20:55:00,15.6,-2.9,30.09,NW,315,1.8,3.5,43,0.00,CLR,,0.01,WeatherDisplay:10.37,2013-01-25 01:55:00,
2013-01-24 21:00:00,15.4,-3.1,30.10,NW,315,0.7,2.3,43,0.00,CLR,,0.01,WeatherDisplay:10.37,2013-01-25 02:00:00,
2013-01-24 21:05:00,15.4,-3.1,30.09,WNW,292,2.4,2.4,43,0.00,CLR,,0.01,WeatherDisplay:10.37,2013-01-25 02:05:00,
2013-01-24 21:10:00,15.4,-3.1,30.09,SW,225,0.5,2.3,43,0.00,CLR,,0.01,WeatherDisplay:10.37,2013-01-25 02:10:00,
2013-01-24 21:15:00,15.4,-3.1,30.10,NE,45,0.5,1.1,43,0.00,CLR,,0.01,WeatherDisplay:10.37,2013-01-25 02:15:00,
2013-01-24 21:20:00,15.3,-3.3,30.10,NNW,338,1.1,1.1,43,0.00,CLR,,0.01,WeatherDisplay:10.37,2013-01-25 02:20:00,
2013-01-24 21:25:00,15.1,-3.4,30.10,NW,315,1.4,2.3,43,0.00,CLR,,0.01,WeatherDisplay:10.37,2013-01-25 02:25:00,
2013-01-24 21:30:00,15.1,-3.4,30.10,West,270,0.0,2.3,43,0.00,CLR,,0.01,WeatherDisplay:10.37,2013-01-25 02:30:00,
2013-01-24 21:35:00,14.9,-3.6,30.10,WNW,292,2.6,2.6,43,0.00,CLR,,0.01,WeatherDisplay:10.37,2013-01-25 02:35:00,
2013-01-24 21:40:00,15.1,-3.9,30.11,West,270,0.9,4.6,42,0.00,CLR,,0.01,WeatherDisplay:10.37,2013-01-25 02:40:00,
2013-01-24 21:45:00,15.1,-3.4,30.11,WNW,292,0.9,1.1,43,0.00,CLR,,0.01,WeatherDisplay:10.37,2013-01-25 02:45:00,
2013-01-24 21:50:00,14.9,-3.6,30.11,WSW,248,0.0,1.1,43,0.00,CLR,,0.01,WeatherDisplay:10.37,2013-01-25 02:50:00,
2013-01-24 21:55:00,14.7,-3.8,30.11,NNE,22,2.4,2.4,43,0.00,CLR,,0.01,WeatherDisplay:10.37,2013-01-25 02:55:00,
2013-01-24 22:00:00,14.7,-3.8,30.11,WNW,292,1.1,3.5,43,0.00,CLR,,0.01,WeatherDisplay:10.37,2013-01-25 03:00:00,
2013-01-24 22:05:00,14.5,-3.5,30.11,WSW,248,0.2,1.1,44,0.00,CLR,,0.01,WeatherDisplay:10.37,2013-01-25 03:05:00,
2013-01-24 22:10:00,14.4,-4.1,30.11,WSW,248,0.5,3.5,43,0.00,CLR,,0.01,WeatherDisplay:10.37,2013-01-25 03:10:00,
2013-01-24 22:15:00,14.2,-3.8,30.11,NW,315,1.8,2.3,44,0.00,CLR,,0.01,WeatherDisplay:10.37,2013-01-25 03:15:00,
2013-01-24 22:20:00,14.2,-4.3,30.11,West,270,1.1,3.5,43,0.00,CLR,,0.01,WeatherDisplay:10.37,2013-01-25 03:20:00,
2013-01-24 22:25:00,14.4,-4.1,30.11,NW,315,0.5,1.1,43,0.00,CLR,,0.01,WeatherDisplay:10.37,2013-01-25 03:25:00,
2013-01-24 22:30:00,14.2,-4.3,30.11,WNW,292,1.4,2.3,43,0.00,CLR,,0.01,WeatherDisplay:10.37,2013-01-25 03:30:00,
2013-01-24 22:35:00,14.0,-4.4,30.11,West,270,3.3,6.9,43,0.00,CLR,,0.01,WeatherDisplay:10.37,2013-01-25 03:35:00,
2013-01-24 22:40:00,14.0,-3.9,30.12,NW,315,2.4,2.4,44,0.00,CLR,,0.01,WeatherDisplay:10.37,2013-01-25 03:40:00,
2013-01-24 22:45:00,14.0,-3.9,30.12,SW,225,1.8,2.3,44,0.00,CLR,,0.01,WeatherDisplay:10.37,2013-01-25 03:45:00,
2013-01-24 22:50:00,14.0,-3.9,30.12,West,270,1.6,3.5,44,0.00,CLR,,0.01,WeatherDisplay:10.37,2013-01-25 03:50:00,
2013-01-24 22:55:00,13.8,-4.1,30.12,West,270,1.4,3.5,44,0.00,CLR,,0.01,WeatherDisplay:10.37,2013-01-25 03:55:00,
2013-01-24 23:00:00,13.6,-4.3,30.12,NW,315,1.1,3.5,44,0.00,CLR,,0.01,WeatherDisplay:10.37,2013-01-25 04:00:00,
2013-01-24 23:05:00,13.6,-4.3,30.12,West,270,1.1,1.1,44,0.00,CLR,,0.01,WeatherDisplay:10.37,2013-01-25 04:05:00,
2013-01-24 23:10:00,13.5,-4.0,30.12,NNW,338,1.8,2.3,45,0.00,CLR,,0.01,WeatherDisplay:10.37,2013-01-25 04:10:00,
2013-01-24 23:15:00,13.3,-4.1,30.12,WSW,248,0.9,1.1,45,0.00,CLR,,0.01,WeatherDisplay:10.37,2013-01-25 04:15:00,
2013-01-24 23:20:00,13.3,-4.1,30.12,West,270,1.1,1.1,45,0.00,CLR,,0.01,WeatherDisplay:10.37,2013-01-25 04:20:00,
2013-01-24 23:25:00,13.3,-4.1,30.12,North,0,0.5,1.1,45,0.00,CLR,,0.01,WeatherDisplay:10.37,2013-01-25 04:25:00,
2013-01-24 23:30:00,13.1,-4.8,30.13,NW,315,0.0,4.6,44,0.00,CLR,,0.01,WeatherDisplay:10.37,2013-01-25 04:30:00,
2013-01-24 23:35:00,13.1,-4.3,30.13,WNW,292,4.7,4.7,45,0.00,CLR,,0.01,WeatherDisplay:10.37,2013-01-25 04:35:00,
2013-01-24 23:40:00,13.1,-4.8,30.13,NW,315,0.7,3.5,44,0.00,CLR,,0.01,WeatherDisplay:10.37,2013-01-25 04:40:00,
2013-01-24 23:45:00,13.1,-4.8,30.13,WSW,248,1.1,2.3,44,0.00,CLR,,0.01,WeatherDisplay:10.37,2013-01-25 04:45:00,
2013-01-24 23:50:00,13.1,-4.8,30.14,WNW,292,1.4,1.4,44,0.00,CLR,,0.01,WeatherDisplay:10.37,2013-01-25 04:50:00,
2013-01-24 23:55:00,12.9,-4.9,30.14,NW,315,0.9,1.1,44,0.00,CLR,,0.01,WeatherDisplay:10.37,2013-01-25 04:55:00,